Starlink 31104

operational
NORAD ID: 58672 Int'l Des: 2023-211 Owner: SPXS Country: US Constellation: starlink
LEOCIRCULAR

关于 Starlink 31104

正在加载描述...

实时位置

正在加载3D地球...

即将过境

高度历史

Altitude vs Time

uPlot chart will show altitude changes over time

两行轨道根数

1 58672U 23211F 25353.22528639 .00008057 00000-0 29794-3 0 9996
2 58672 42.9984 179.2708 0001962 258.1327 101.9305 15.28026304111447
Epoch: Dec 19, 2025 • Age: 10 hours

当前状态

高度 483.4 km
速度 7.63 km/s
星下点 30.27°N, 98.36°W
发射日期 Dec 29, 2023
运行时间 1.9 years
类型 internet

技术详情

分类 Payload
质量 730.00 kg
干质量 700.00 kg
总质量 730.00 kg
长度 0.30 m
直径 4.10 m
跨度 29.00 m
形状 Box + pan
制造商 SPXS
平台类型 Starlink V2M
阶段状态 In Orbit
所有者/国家 SPXS/US

大型星座

Loading constellations...